Weather in Avnyugskiy

Russia / Arkhangel'skaya Oblast'     61°59′42″N   45°05′17″E
temp.,
°C
wind,
m/s
gust,
m/s
humid.,
%
clouds,
%
prec.,
mm/h
press.,
hPa
HPBL,
m
4 march, thu
thu400:00−10wnw119787 0.1 99321
03:00−9sse119793 0.3 99221
06:00−10nne2297100 0.3 99065
09:00−9n249498 0.4 991227
12:00−7nnw368797 0.1 992615
15:00−8nw478294 0.1 993915
18:00−12nnw399397 0.0 995358
21:00−16nnw229598 0.1 99622
5 march, fri
fri500:00−19nw239677 0.0 99639
03:00−20nw249757 0.0 99880
06:00−21wnw259889 0.0 99991
09:00−18wnw259591 0.1 1000263
12:00−15wnw359099 0.1 1002477
15:00−14wnw4688100 0.2 1004660
18:00−14wnw3894100 0.1 1005455
21:00−16nw269696 0.2 1007215
6 march, sat
sat600:00−20nw239877 0.0 100939
03:00−21wnw239976 0.1 101061
06:00−22wnw2399100 0.1 101081
09:00−21wnw249698 0.1 1011200
12:00−16w2387100 0.1 1010479
15:00−13w2488100 0.1 1009498
18:00−16s1297100 0.1 100720
21:00−15s239797 0.1 100681
7 march, sun
sun700:00−17sse249685 0.0 100461
03:00−19se369662 0.0 1002112
06:00−17se4109191 0.0 999343
09:00−13se6118596 0.0 997508
12:00−12se61192100 0.4 995649
15:00−10se51091100 1.0 994821
18:00−11ese41093100 0.4 994630
21:00−11e51093100 0.8 995588
8 march, mon
mon800:00−12e41193100 0.4 995564
03:00−13ene41094100 0.6 996541
06:00−15ne41093100 0.3 997521
09:00−14ne4991100 0.5 1000614
12:00−13ne4890100 0.3 1003674
15:00−12nne4988100 0.5 1005696
18:00−14nne31089100 0.1 1008628
21:00−17n3893100 0.1 1011228